Showing default

ANGOSAT 2, 54033

Orbit data source: Space-Track

ANGOSAT 2, 54033 is a payload satellite owned by GGPEN (AO) in GEO that was launched on Wed, 12 Oct 2022 UTC via a PROTON-M/DM-3 launch vehicle from the Tyuratam Missile And Space Complex (TTMTR). Payload-class satellites include a variety of spacecraft equipped with specific instruments for various scientific and technological missions. These include communications satellites like Starlink; space stations such as the ISS; scientific satellites like the Hubble; Earth observation satellites from companies like Planet Labs, Umbra, and HawkEye 360; GPS; miniature CubeSats for education and research; and military/defense satellites.

Not visible in the next 10 days
Identifier
54033, 2022-131A
Orbit
GEO
Country
Flag of AOAO / AGO
Related business
Manufacturer
Resehetnev ISS
Mission
Operational Civil Communications
Bus & Motor
EKSPRESS-1000N, AOCS
Mass
2,150 kg wet, ~1,800 kg dry
Launch date (UTC)
2022-10-12 (3 years ago)
Launch vehicle
PROTON-M/DM-3
Launch site
Tyuratam Missile And Space Complex (TTMTR)
Object type
Payload
Rocket body
Debris
Shape & HBR
Box + 2 Pan, 7.5 m
Radar Cross Section
16.987 m², Large (>1 m²)

Expand to show TLE details & history
Last TLE update: 3 days ago

TLE from 3 days ago
0 ANGOSAT 2
1 54033U 22131A   26071.79024390  .00000136  00000-0  00000-0 0  9994
2 54033   0.0191 162.9381 0000618 294.1226  20.8366  1.00271033 12510
Epoch: 2026-03-12T18:57Z
TLE epoch observation values (Epoch: 2026-03-12T18:57:57.072Z)
Latitude
-0.02589°
Longitude
22.99553°
Altitude
35,783.87 km
Speed
3.075 km/s
True Right ascension
07h 51m 40s
True Declination
0° 01' 33"
Sunlit
Object was in daylight at epoch
Visualization orbit readout
Latitude
Unknown
Longitude
Unknown
Altitude
Unknown
Speed
Unknown
Apparent Right ascension
Unknown
Apparent Declination
Unknown
Sunlit
N/A
Visualization observer readout
Local Sidereal Time
22:29:25
Azimuth
Unknown
Elevation
Unknown
Doppler factor
Unknown
Orbital elements
Apogee altitude
35,790.482 km
Perigee altitude
35,785.27 km
Semi-major axis
42,166.013 km
Eccentricity
0.00006
Inclination
0.0191°
RAAN
162.9381°
Arg. of periapsis
294.1226°
True anomaly
20.83912°
Mean anomaly
20.8366°
Eccentric anomaly
20.83786°
Mean motion
0.25067 °/min
Orbital period
1,436.16 mins
BSTAR
0
Loading maneuver chart data...
Computing Atmospheric mass density...
Loading historical data...
Loading historical data...
Loading historical data...
Loading historical data...
Loading historical data...
Loading historical data...
Loading historical data...
Other satellites on launch #131 in the year 2022 (2022-10-12 UTC)

Documentation

Showing up to 5 results
|